Time,TemperatureF,DewpointF,PressureIn,WindDirection,WindDirectionDegrees,WindSpeedMPH,WindSpeedGustMPH,Humidity,HourlyPrecipIn,Conditions,Clouds,dailyrainin,SolarRadiationWatts/m^2,SoftwareType,DateUTC
2013-05-14 00:40:00,52.0,40.0,30.08,SSE,148,3.0,5.0,62,-99.99,,,-99.99,0.000000,,2013-05-14 07:40:00,
2013-05-14 01:21:00,52.0,40.0,30.08,SSE,148,3.0,5.0,62,-99.99,,,-99.99,0.000000,,2013-05-14 08:21:00,
2013-05-14 01:31:00,52.0,40.0,30.08,SSE,148,3.0,5.0,62,-99.99,,,-99.99,0.000000,,2013-05-14 08:31:00,
2013-05-14 01:40:00,49.0,42.0,30.08,South,173,3.0,5.0,78,-99.99,,,-99.99,0.000000,,2013-05-14 08:40:00,
2013-05-14 02:21:00,49.0,42.0,30.08,South,173,3.0,5.0,78,-99.99,,,-99.99,0.000000,,2013-05-14 09:21:00,
2013-05-14 02:32:00,49.0,42.0,30.08,South,173,3.0,5.0,78,-99.99,,,-99.99,0.000000,,2013-05-14 09:32:00,
2013-05-14 08:40:00,61.0,40.0,30.09,SSE,150,0.0,2.0,46,-99.99,,,-99.99,510.000000,,2013-05-14 15:40:00,
2013-05-14 09:23:00,61.0,40.0,30.09,SSE,150,0.0,2.0,46,-99.99,,,-99.99,510.000000,,2013-05-14 16:23:00,
2013-05-14 09:33:00,61.0,40.0,30.09,SSE,150,0.0,2.0,46,-99.99,,,-99.99,510.000000,,2013-05-14 16:33:00,
2013-05-14 09:40:00,66.0,41.0,30.07,SSW,193,1.0,3.0,41,-99.99,,,-99.99,700.000000,,2013-05-14 16:40:00,
2013-05-14 10:24:00,66.0,41.0,30.07,SSW,193,1.0,3.0,41,-99.99,,,-99.99,700.000000,,2013-05-14 17:24:00,
2013-05-14 10:32:00,66.0,41.0,30.07,SSW,193,1.0,3.0,41,-99.99,,,-99.99,700.000000,,2013-05-14 17:32:00,
2013-05-14 10:40:00,71.0,40.0,30.05,North,353,2.0,3.0,33,-99.99,,,-99.99,860.000000,,2013-05-14 17:40:00,
2013-05-14 11:22:00,71.0,40.0,30.05,North,353,2.0,3.0,33,-99.99,,,-99.99,860.000000,,2013-05-14 18:22:00,
2013-05-14 11:32:00,71.0,40.0,30.05,North,353,2.0,3.0,33,-99.99,,,-99.99,860.000000,,2013-05-14 18:32:00,
2013-05-14 11:40:00,75.0,40.0,30.04,SSW,204,2.0,4.0,28,-99.99,,,-99.99,980.000000,,2013-05-14 18:40:00,
2013-05-14 12:22:00,75.0,40.0,30.04,SSW,204,2.0,4.0,28,-99.99,,,-99.99,980.000000,,2013-05-14 19:22:00,
2013-05-14 12:31:00,75.0,40.0,30.04,SSW,204,2.0,4.0,28,-99.99,,,-99.99,980.000000,,2013-05-14 19:31:00,
2013-05-14 14:40:00,69.0,41.0,30.02,SSE,168,11.0,21.0,36,-99.99,,,-99.99,390.000000,,2013-05-14 21:40:00,
2013-05-14 15:24:00,69.0,41.0,30.02,SSE,168,11.0,21.0,36,-99.99,,,-99.99,390.000000,,2013-05-14 22:24:00,
2013-05-14 15:34:00,69.0,41.0,30.02,SSE,168,11.0,21.0,36,-99.99,,,-99.99,390.000000,,2013-05-14 22:34:00,
2013-05-14 15:40:00,72.0,43.0,30.02,SSE,154,7.0,14.0,35,-99.99,,,-99.99,520.000000,,2013-05-14 22:40:00,
2013-05-14 16:31:00,72.0,43.0,30.02,SSE,154,7.0,14.0,35,-99.99,,,-99.99,520.000000,,2013-05-14 23:31:00,
2013-05-14 16:40:00,68.0,42.0,30.03,SSE,151,15.0,21.0,40,-99.99,,,-99.99,400.000000,,2013-05-14 23:40:00,
2013-05-14 17:21:00,68.0,42.0,30.03,SSE,151,15.0,21.0,40,-99.99,,,-99.99,400.000000,,2013-05-15 00:21:00,
2013-05-14 17:32:00,68.0,42.0,30.03,SSE,151,15.0,21.0,40,-99.99,,,-99.99,400.000000,,2013-05-15 00:32:00,
2013-05-14 17:40:00,70.0,43.0,30.02,SSE,157,9.0,17.0,38,-99.99,,,-99.99,450.000000,,2013-05-15 00:40:00,
2013-05-14 18:21:00,70.0,43.0,30.02,SSE,157,9.0,17.0,38,-99.99,,,-99.99,450.000000,,2013-05-15 01:21:00,
2013-05-14 18:31:00,70.0,43.0,30.02,SSE,157,9.0,17.0,38,-99.99,,,-99.99,450.000000,,2013-05-15 01:31:00,
2013-05-14 19:40:00,62.0,44.0,30.02,SW,214,5.0,9.0,51,-99.99,,,-99.99,10.000000,,2013-05-15 02:40:00,
2013-05-14 20:33:00,62.0,44.0,30.02,SW,214,5.0,9.0,51,-99.99,,,-99.99,10.000000,,2013-05-15 03:33:00,
2013-05-14 20:40:00,65.0,43.0,30.02,WNW,285,14.0,23.0,45,-99.99,,,-99.99,0.000000,,2013-05-15 03:40:00,
2013-05-14 21:24:00,65.0,43.0,30.02,WNW,285,14.0,23.0,45,-99.99,,,-99.99,0.000000,,2013-05-15 04:24:00,
2013-05-14 21:33:00,65.0,43.0,30.02,WNW,285,14.0,23.0,45,-99.99,,,-99.99,0.000000,,2013-05-15 04:33:00,
2013-05-14 21:40:00,64.0,42.0,30.04,WNW,290,12.0,19.0,44,-99.99,,,-99.99,0.000000,,2013-05-15 04:40:00,
2013-05-14 22:22:00,64.0,42.0,30.04,WNW,290,12.0,19.0,44,-99.99,,,-99.99,0.000000,,2013-05-15 05:22:00,
2013-05-14 22:32:00,64.0,42.0,30.04,WNW,290,12.0,19.0,44,-99.99,,,-99.99,0.000000,,2013-05-15 05:32:00,
2013-05-14 22:40:00,61.0,39.0,30.05,SW,220,7.0,10.0,44,-99.99,,,-99.99,0.000000,,2013-05-15 05:40:00,
2013-05-14 23:21:00,61.0,39.0,30.05,SW,220,7.0,10.0,44,-99.99,,,-99.99,0.000000,,2013-05-15 06:21:00,
2013-05-14 23:31:00,61.0,39.0,30.05,SW,220,7.0,10.0,44,-99.99,,,-99.99,0.000000,,2013-05-15 06:31:00,
2013-05-14 23:40:00,54.0,42.0,30.04,South,178,3.0,8.0,64,-99.99,,,-99.99,0.000000,,2013-05-15 06:40:00,